sat.trackr.live / text

‹ back to catalog

ONEWEB-0268

NORAD 48986 · 2021-060V

PAYLOAD ACTIVE UNKNOWN

§ Identity

Operator
Country
UK
Launch date
2021-07-01
Launch site
VOSTO
Launch vehicle
Mass (kg)
RCS (m²)

Purposes: comms

External: N2YO · Heavens-Above · Gunter

§ Orbital elements

Epoch: 2026-09-09T22:07:15.408768Z

Period
109.37 min
Inclination
87.9138°
Eccentricity
0.0002090
Mean motion
13.16593153 rev/d
Perigee alt
1,196.2 km
Apogee alt
1,199.3 km
Semi-major
7,575.9 km
B*
-4.6181e-4
RAAN
211.9543°
Arg perigee
83.2547°
Mean anomaly
276.8822°
Rev number
25,100

§ Raw data

ONEWEB-02681 48986U 21060V   26252.92170612 -.00000164  00000+0 -46181-3 0  99942 48986  87.9138 211.9543 0002090  83.2547 276.8822 13.16593153251008

JSON: /api/v1/satellites/48986 · /tle

For live sub-satellite position, see the globe view (requires WebGL).

§ Visibility from observer

Set your observer location to see the next 7 days of passes ≥ 10°. The values pass through the URL so the page stays shareable.

No JS? Fill the form by hand. The geolocation button needs JavaScript.